Terminal Aerodrome Forecast
Issued by NWS Anchorage, AK

Home | Current Version | Previous Version | Text Only | Print | Product List | Glossary On
Versions: 1 2 3 4 5 6 7 8 9 10 11 12 13 14 15 16 17 18 19 20 21 22 23 24 25 26 27 28 29 30 31 32 33 34 35
000
FTAK31 PANC 241131
TAFANC
TAF
PANC 241131Z 2412/2518 15012G18KT P6SM VCSH FEW006 SCT080 BKN120
     FM241600 17007KT P6SM VCSH SCT040 BKN080 BKN120
     FM241800 24008KT P6SM VCSH SCT040 BKN070 OVC100
     FM250200 21006KT P6SM SCT050 BKN080=

USA.gov is the U.S. government's official web portal to all federal, state and local government web resources and services.